218  
ASUS43 KARX 120610  
RWRARX  
 
HOURLY WEATHER FOR THE UPPER MISSISSIPPI RIVER VALLEY  
NATIONAL WEATHER SERVICE LA CROSSE WI  
100 AM CDT FRI AUG 12 2022  
 
NOTE: "FAIR" INDICATES FEW OR NO CLOUDS BELOW 12,000 FEET WITH NO  
SIGNIFICANT WEATER AND/OR S TO VISIBILITY
.  
 
MNZ077-085>088-093>096-120700  
SOUTHEAST MINNESOTA  
 
CITY SKY/WX TMP DP RH WIND PRES REMARKS
 
ROCHESTER PTCLDY 60 56 86 SE7 30.20F  
WINONA MOCLDY 63 63 100 CALM 30.19F  
AUSTIN MOCLDY 64 61 88 CALM 30.20S  
ALBERT LEA MOCLDY 66 63 88 SE5 30.18F  
DODGE CENTER N/A 61 57 88 SE8 30.18F  
PRESTON CLEAR 63 56 78 CALM 30.21F  
OWATONNA CLOUDY 66 61 82 SE7 30.16F  
FARIBAULT CLOUDY 68 59 73 SE8 30.16F  

 
 
WIZ041-042-053>056-061-120700  
SOUTHWEST WISCONSIN  
 
CITY SKY/WX TMP DP RH WIND PRES REMARKS
 
LA CROSSE MOCLDY 64 59 83 SE5 30.20S  
SPARTA MOCLDY 53 53 99 CALM 30.23S  
VIROQUA MOCLDY 61 60 96 E7 30.23S  
WIS DELLS CLEAR 56 54 93 CALM 30.24S  
PRAIRIE DU CHI CLEAR 61 58 91 E3 30.21R  
BOSCOBEL PTCLDY 58 57 97 CALM 30.22R  
LONE ROCK CLEAR 59 56 89 CALM 30.23R  
PLATTEVILLE FAIR 61 59 94 E7 30.24R  

 
 
WIZ017-030-034>036-043>045-120700  
CENTRAL WISCONSIN  
 
CITY SKY/WX TMP DP RH WIND PRES REMARKS
 
MEDFORD PTCLDY 52 52 100 E3 30.24S  
WAUSAU PTCLDY 60 53 77 CALM 30.24S  
BLACK RVR FLS MOCLDY 52 51 95 CALM 30.21F  
WIS RAPIDS PTCLDY 60 54 80 S3 30.25R  
MARSHFIELD MOCLDY 57 53 86 CALM 30.24R  
MAUSTON FAIR 57 57 100 CALM 30.23S  
CAMP DOUGLAS PTCLDY 50 50 100 CALM 30.21S  
WAUTOMA PTCLDY 55 54 96 CALM 30.25R  

 
 
IAZ008>011-017>019-029-030-120700  
NORTHEAST IOWA  
 
CITY SKY/WX TMP DP RH WIND PRES REMARKS
 
WATERLOO CLOUDY 68 61 78 SE7 30.18R  
DUBUQUE CLEAR 63 57 81 SE10 30.23R  
DECORAH CLOUDY 61 61 100 SE3 30.19S  
MASON CITY PTCLDY 64 62 93 SE6 30.20S  
CHARLES CITY MOCLDY 66 64 94 SE7 30.20R  
OELWEIN MOCLDY 63 59 88 SE7 30.21R  

 
 
WIND SPEEDS ARE IN MILES PER HOUR.  
 
ABBREVIATIONS USED IN THE REMARKS:  
VSB - VISIBILITY IN STATUTE MILES  
WCI - WIND CHILL INDEX  
HX - HEAT INDEX  
 
 
CLICK HERE TO GO TO PREVIOUS BULLETINS.

The Nexlab WI Page
The Nexlab IA Page
The Nexlab MN Page Main Text Page